Flag Weather past 2 weeks in Broome, Western Australia, Australia

Now
86 °F

Warm.


Feels Like: 88 °F
Forecast: 83 / 93 °F
Wind: 15 mph from Southeast

Location: Broome Airport

Current Time: Nov 26, 2014 at 8:58:21 AM

Latest Report: Nov 26, 2014 at 8:00 AM


Visibility: N/A

Pressure: 29.81 "Hg

Humidity: 49%

Dew point: 65 °F

Location of BroomeLocation

Historic Weather in Broome — Graph

°F

Broome temperature yesterday

Maximum temperature yesterday: 95 °F (at 2:00 PM)
Minimum temperature yesterday: 85 °F (at 12:00 AM)
Average temperature yesterday: 88 °F

Past Weeks' High & Low Weather Summary

 TemperatureHumidityPressure
High97 °F (Nov 18, 12:00 PM)96% (Nov 11, 6:00 AM)29.91 "Hg (Nov 11, 6:00 AM)
Low74 °F (Nov 15, 5:00 AM)35% (Nov 16, 12:00 PM)29.67 "Hg (Nov 25, 5:00 PM)
Average87 °F68%29.80 "Hg
* Reported Nov 11 6:00 AM — Nov 26 6:00 AM, Broome, Weather by CustomWeather, © 2014

Note: Actual official high and low records may vary slightly from our data, if they occured in-between our weather recording intervals... More about our weather records

Advertising

Broome weather history for previous 24 hours

 ConditionsComfort  
Time TempWeatherWind HumidityBarometerVisibility
6:00 AM
Nov 26
84 °FOvercast.13 mph50%29.80 "Hg7 mi
5:00 AM84 °FWarm.10 mph49%29.76 "HgN/A
3:00 AM84 °FPassing clouds.7 mph53%29.73 "Hg2 mi
2:00 AM85 °FWarm.9 mph52%29.75 "HgN/A
12:00 AM86 °FPassing clouds.10 mph75%29.76 "HgN/A
11:00 PM
Nov 25
86 °FWarm.9 mph77%29.78 "HgN/A
9:00 PM86 °FPassing clouds.9 mph77%29.72 "Hg19 mi
8:00 PM87 °FWarm.8 mph71%29.71 "HgN/A
6:00 PM88 °FPassing clouds.9 mph62%29.68 "Hg19 mi
5:00 PM90 °FHot.13 mph62%29.67 "HgN/A
3:00 PM94 °FOvercast.12 mph43%29.69 "Hg19 mi
2:00 PM95 °FExtremely hot.10 mph38%29.71 "HgN/A
12:00 PM92 °FOvercast.8 mph42%29.75 "Hg16 mi
11:00 AM87 °FWarm.7 mph49%29.79 "HgN/A
9:00 AM88 °FOvercast.6 mph67%29.82 "Hg16 mi
8:00 AM86 °FWarm.7 mph73%29.83 "HgN/A
Weather by CustomWeather, © 2014

See weather overviewHow to use our weather pages